Weather History for Rugby, ND

Change the Weather History Date:

Monday, July 1, 2013

  Actual Average Record
Temperature  
Mean Temperature 70 °F -  
Max Temperature 80 °F 79 °F 91 °F (1981)
Min Temperature 59 °F 55 °F 44 °F (1951)
Cooling Degree Days 4    
Growing Degree Days 20 (Base 50)    
Moisture  
Dew Point 56 °F    
Average Humidity 61    
Maximum Humidity 100    
Minimum Humidity 34    
Precipitation  
Precipitation 0.00 in - - ()
Sea Level Pressure  
Sea Level Pressure 30.24 in    
Wind  
Wind Speed 6 mph (South)    
Max Wind Speed 10 mph    
Max Gust Speed -    
Visibility 10 miles    
Events      
Averages and records for this station are not official NWS values.
T = Trace of Precipitation, MM = Missing Value Source: NWS Daily Summary

Daily Weather History Graph

Daily Weather History Graph

Search for Another Location

Airport:

Trip Planner

Search our weather history database for the weather conditions in past years. The results will help you decide how hot, cold, wet, or windy it might be!

Date:

Astronomy

Jul. 01, 2013 Rise Set
Actual Time 5:43 AM CDT 9:44 PM CDT
Civil Twilight 5:01 AM CDT 10:26 PM CDT
Nautical Twilight 4:03 AM CDT 11:23 PM CDT
Astronomical Twilight 2:22 AM CDT 1:03 AM CDT
Moon 1:33 AM CDT (7/1) 3:45 PM CDT (7/1)
Length of Visible Light 17h 24m
Length of Day
16h 01m
Waning Crescent, 35% of the Moon is Illuminated
Jul 1
Waning Crescent
Jul 8
New
Jul 15
First Quarter
Jul 22
Full
Jul 29
Last Quarter

Hourly Weather History & Observations

Time (CDT) Temp. Heat Index Dew Point Humidity Pressure Visibility Wind Dir Wind Speed Gust Speed Precip Events Conditions
12:15 AM 62.6 °F - 57.2 °F 82% 30.23 in 10.0 mi East 5.8 mph - N/A   Clear
12:35 AM 62.6 °F - 57.2 °F 82% 30.23 in 10.0 mi East 6.9 mph - N/A   Clear
12:55 AM 62.6 °F - 57.2 °F 82% 30.23 in 10.0 mi East 6.9 mph - N/A   Clear
1:15 AM 62.6 °F - 57.2 °F 82% 30.23 in 10.0 mi East 6.9 mph - N/A   Clear
1:35 AM 62.6 °F - 57.2 °F 82% 30.23 in 10.0 mi East 8.1 mph - N/A   Clear
1:55 AM 62.6 °F - 57.2 °F 82% 30.23 in 10.0 mi East 8.1 mph - N/A   Clear
2:15 AM 62.6 °F - 57.2 °F 82% 30.23 in 10.0 mi East 8.1 mph - N/A   Clear
2:35 AM 60.8 °F - 57.2 °F 88% 30.24 in 10.0 mi East 8.1 mph - N/A   Clear
2:55 AM 60.8 °F - 57.2 °F 88% 30.24 in 10.0 mi ESE 5.8 mph - N/A   Clear
3:15 AM 59.0 °F - 57.2 °F 94% 30.24 in 10.0 mi ESE 4.6 mph - N/A   Clear
3:35 AM 60.8 °F - 57.2 °F 88% 30.24 in 10.0 mi ESE 5.8 mph - N/A   Partly Cloudy
3:55 AM 60.8 °F - 57.2 °F 88% 30.24 in 10.0 mi ESE 5.8 mph - N/A   Partly Cloudy
4:15 AM 60.8 °F - 59.0 °F 94% 30.24 in 10.0 mi ESE 6.9 mph - N/A   Scattered Clouds
4:35 AM 59.0 °F - 57.2 °F 94% 30.24 in 10.0 mi ESE 6.9 mph - N/A   Clear
4:55 AM 59.0 °F - 59.0 °F 100% 30.25 in 10.0 mi ESE 5.8 mph - N/A   Partly Cloudy
5:15 AM 59.0 °F - 57.2 °F 94% 30.25 in 10.0 mi East 4.6 mph - N/A   Partly Cloudy
5:35 AM 59.0 °F - 59.0 °F 100% 30.25 in 10.0 mi ESE 5.8 mph - N/A   Partly Cloudy
5:55 AM 59.0 °F - 59.0 °F 100% 30.26 in 10.0 mi ESE 5.8 mph - N/A   Partly Cloudy
6:15 AM 60.8 °F - 59.0 °F 94% 30.26 in 10.0 mi SE 3.5 mph - N/A   Clear
6:35 AM 62.6 °F - 59.0 °F 88% 30.27 in 10.0 mi SE 3.5 mph - N/A   Partly Cloudy
6:55 AM 62.6 °F - 59.0 °F 88% 30.27 in 10.0 mi Calm Calm - N/A   Clear
7:15 AM 64.4 °F - 60.8 °F 88% 30.27 in 10.0 mi ESE 4.6 mph - N/A   Clear
7:35 AM 66.2 °F - 60.8 °F 83% 30.27 in 10.0 mi ESE 4.6 mph - N/A   Clear
7:55 AM 66.2 °F - 59.0 °F 78% 30.27 in 10.0 mi SE 3.5 mph - N/A   Clear
8:15 AM 66.2 °F - 59.0 °F 78% 30.27 in 10.0 mi ESE 5.8 mph - N/A   Clear
8:35 AM 68.0 °F - 59.0 °F 73% 30.27 in 10.0 mi SSE 4.6 mph - N/A   Clear
8:55 AM 68.0 °F - 59.0 °F 73% 30.28 in 10.0 mi SSE 4.6 mph - N/A   Clear
9:15 AM 71.6 °F - 57.2 °F 60% 30.28 in 10.0 mi South 5.8 mph - N/A   Clear
9:35 AM 73.4 °F - 55.4 °F 53% 30.28 in 10.0 mi SSW 5.8 mph - N/A   Clear
9:55 AM 75.2 °F - 55.4 °F 50% 30.28 in 10.0 mi WSW 5.8 mph - N/A   Clear
10:15 AM 75.2 °F - 55.4 °F 50% 30.27 in 10.0 mi WSW 6.9 mph - N/A   Clear
10:35 AM 75.2 °F - 55.4 °F 50% 30.27 in 10.0 mi SW 6.9 mph - N/A   Clear
10:55 AM 77.0 °F - 55.4 °F 47% 30.27 in 10.0 mi SW 5.8 mph - N/A   Clear
11:15 AM 77.0 °F - 55.4 °F 47% 30.27 in 10.0 mi WSW 6.9 mph - N/A   Clear
11:35 AM 77.0 °F - 57.2 °F 50% 30.27 in 10.0 mi SW 4.6 mph - N/A   Clear
11:55 AM 77.0 °F - 55.4 °F 47% 30.27 in 10.0 mi SW 5.8 mph - N/A   Clear
12:15 PM 78.8 °F - 53.6 °F 42% 30.26 in 10.0 mi South 4.6 mph - N/A   Clear
12:35 PM 78.8 °F - 53.6 °F 42% 30.26 in 10.0 mi WSW 8.1 mph - N/A   Clear
12:55 PM 80.6 °F 80.3 °F 53.6 °F 39% 30.26 in 10.0 mi WSW 9.2 mph - N/A   Clear
1:15 PM 80.6 °F - 51.8 °F 37% 30.26 in 10.0 mi WSW 9.2 mph - N/A   Clear
1:35 PM 80.6 °F - 50.0 °F 34% 30.25 in 10.0 mi SW 5.8 mph - N/A   Clear
1:55 PM 80.6 °F - 50.0 °F 34% 30.25 in 10.0 mi WSW 6.9 mph - N/A   Clear
2:15 PM 80.6 °F 80.3 °F 53.6 °F 39% 30.25 in 10.0 mi WSW 8.1 mph - N/A   Scattered Clouds
2:35 PM 80.6 °F 80.3 °F 53.6 °F 39% 30.24 in 10.0 mi WNW 9.2 mph - N/A   Mostly Cloudy
2:55 PM 78.8 °F - 53.6 °F 42% 30.24 in 10.0 mi WNW 9.2 mph - N/A   Partly Cloudy
3:15 PM 80.6 °F 80.3 °F 53.6 °F 39% 30.24 in 10.0 mi WNW 8.1 mph - N/A   Partly Cloudy
3:35 PM 80.6 °F 80.3 °F 53.6 °F 39% 30.24 in 10.0 mi WSW 8.1 mph - N/A   Clear
3:55 PM 80.6 °F - 51.8 °F 37% 30.23 in 10.0 mi Calm Calm - N/A   Partly Cloudy
4:15 PM 80.6 °F 80.3 °F 53.6 °F 39% 30.23 in 10.0 mi SW 5.8 mph - N/A   Clear
4:35 PM 80.6 °F 80.3 °F 53.6 °F 39% 30.22 in 10.0 mi SW 10.4 mph - N/A   Clear
4:55 PM 80.6 °F - 50.0 °F 34% 30.22 in 10.0 mi SW 3.5 mph - N/A   Clear
5:15 PM 80.6 °F - 51.8 °F 37% 30.22 in 10.0 mi WSW 4.6 mph - N/A   Clear
5:35 PM 80.6 °F 80.3 °F 53.6 °F 39% 30.22 in 10.0 mi WSW 6.9 mph - N/A   Clear
5:55 PM 80.6 °F - 51.8 °F 37% 30.22 in 10.0 mi SW 4.6 mph - N/A   Clear
6:15 PM 80.6 °F - 50.0 °F 34% 30.21 in 10.0 mi SSW 6.9 mph - N/A   Clear
6:35 PM 80.6 °F 80.5 °F 55.4 °F 42% 30.21 in 10.0 mi SW 6.9 mph - N/A   Clear
6:55 PM 80.6 °F 80.3 °F 53.6 °F 39% 30.21 in 10.0 mi WSW 10.4 mph - N/A   Clear
7:15 PM 80.6 °F - 51.8 °F 37% 30.20 in 10.0 mi SW 6.9 mph - N/A   Clear
7:35 PM 80.6 °F 80.3 °F 53.6 °F 39% 30.20 in 10.0 mi SW 5.8 mph - N/A   Clear
8:15 PM 78.8 °F - 53.6 °F 42% 30.20 in 10.0 mi SW 4.6 mph - N/A   Clear
8:35 PM 77.0 °F - 55.4 °F 47% 30.19 in 10.0 mi SW 3.5 mph - N/A   Clear
8:55 PM 75.2 °F - 55.4 °F 50% 30.19 in 10.0 mi SSW 4.6 mph - N/A   Clear
9:15 PM 75.2 °F - 55.4 °F 50% 30.19 in 10.0 mi SSW 4.6 mph - N/A   Clear
9:35 PM 75.2 °F - 55.4 °F 50% 30.19 in 10.0 mi South 3.5 mph - N/A   Clear
9:55 PM 73.4 °F - 57.2 °F 57% 30.19 in 10.0 mi South 3.5 mph - N/A   Clear
10:15 PM 73.4 °F - 55.4 °F 53% 30.19 in 9.0 mi South 5.8 mph - N/A   Clear
10:35 PM 71.6 °F - 55.4 °F 57% 30.19 in 10.0 mi South 4.6 mph - N/A   Clear
10:55 PM 71.6 °F - 55.4 °F 57% 30.19 in 10.0 mi South 3.5 mph - N/A   Clear
11:15 PM 71.6 °F - 55.4 °F 57% 30.19 in 10.0 mi South 4.6 mph - N/A   Clear
11:35 PM 66.2 °F - 57.2 °F 73% 30.19 in 10.0 mi SSE 6.9 mph - N/A   Clear
11:55 PM 68.0 °F - 57.2 °F 68% 30.19 in 10.0 mi SSE 4.6 mph - N/A   Clear